Weather History for Poughkeepsie, NY

Change the Weather History Date:

Thursday, August 22, 2013

  Actual Average Record
Temperature  
Mean Temperature 74 °F 70 °F  
Max Temperature 83 °F 82 °F 90 °F (1955)
Min Temperature 65 °F 59 °F 41 °F (1982)
Degree Days  
Heating Degree Days 0 0  
Month to date heating degree days 3 0  
Since 1 June heating degree days 34 54  
Since 1 July heating degree days 3 5  
Cooling Degree Days 9 0  
Month to date cooling degree days 105 156  
Year to date cooling degree days 695 559  
Since 1 June cooling degree days 642 523  
Growing Degree Days 23 (Base 50)    
Moisture  
Dew Point 67 °F    
Average Humidity 78    
Maximum Humidity 93    
Minimum Humidity 63    
Precipitation  
Precipitation T in 0.13 in 3.70 in (2010)
Month to date precipitation 5.87 3.14  
Year to date precipitation 29.48 29.72  
Sea Level Pressure  
Sea Level Pressure 29.94 in    
Wind  
Wind Speed 3 mph (South)    
Max Wind Speed 12 mph    
Max Gust Speed 18 mph    
Visibility 7 miles    
Events Rain , Thunderstorm    
T = Trace of Precipitation, MM = Missing Value Source: NWS Daily Summary

Daily Weather History Graph

Daily Weather History Graph

Search for Another Location

Airport:

Trip Planner

Search our weather history database for the weather conditions in past years. The results will help you decide how hot, cold, wet, or windy it might be!

Date:

Astronomy

Aug. 22, 2013 Rise Set
Actual Time 6:11 AM EDT 7:44 PM EDT
Civil Twilight 5:42 AM EDT 8:13 PM EDT
Nautical Twilight 5:06 AM EDT 8:48 PM EDT
Astronomical Twilight 4:29 AM EDT 9:26 PM EDT
Moon 8:24 PM EDT (8/22) 7:59 AM EDT (8/22)
Length of Visible Light 14h 31m
Length of Day
13h 32m
Waning Gibbous, 97% of the Moon is Illuminated
Aug 22
Waning Gibbous
Aug 28
Last Quarter
Sep 5
New
Sep 12
First Quarter
Sep 19
Full

Hourly Weather History & Observations

Time (EDT) Temp. Heat Index Dew Point Humidity Pressure Visibility Wind Dir Wind Speed Gust Speed Precip Events Conditions
12:53 AM 66.0 °F - 64.0 °F 93% 30.04 in 6.0 mi Calm Calm - N/A   Clear
1:53 AM 64.9 °F - 63.0 °F 93% 30.04 in 5.0 mi Calm Calm - N/A   Clear
2:53 AM 64.9 °F - 63.0 °F 93% 30.04 in 6.0 mi Calm Calm - N/A   Clear
3:53 AM 66.0 °F - 63.0 °F 90% 30.03 in 6.0 mi Calm Calm - N/A   Clear
4:53 AM 66.0 °F - 64.0 °F 93% 30.01 in 6.0 mi Calm Calm - 0.00 in Rain Light Rain
5:53 AM 66.0 °F - 64.9 °F 96% 29.99 in 2.5 mi Calm Calm - 0.00 in   Clear
6:16 AM 66.2 °F - 64.4 °F 94% 30.01 in 1.2 mi Calm Calm - N/A   Clear
6:53 AM 66.0 °F - 64.9 °F 96% 30.00 in 1.8 mi Calm Calm - N/A   Clear
7:12 AM 66.2 °F - 64.4 °F 94% 30.01 in 2.0 mi Calm Calm - N/A   Clear
7:34 AM 69.8 °F - 66.2 °F 88% 30.01 in 3.0 mi Calm Calm - N/A   Clear
7:53 AM 70.0 °F - 66.9 °F 90% 30.00 in 4.0 mi Calm Calm - N/A   Clear
8:53 AM 72.0 °F - 68.0 °F 87% 29.99 in 6.0 mi Calm Calm - 0.00 in   Partly Cloudy
9:53 AM 73.0 °F - 69.1 °F 87% 30.00 in 6.0 mi Calm Calm - N/A   Clear
10:53 AM 75.9 °F - 69.1 °F 79% 29.99 in 10.0 mi SSW 8.1 mph - N/A   Partly Cloudy
11:53 AM 75.9 °F - 69.1 °F 79% 29.98 in 10.0 mi South 6.9 mph - N/A   Mostly Cloudy
12:53 PM 78.1 °F - 66.9 °F 68% 29.96 in 10.0 mi Variable 4.6 mph - N/A   Clear
1:53 PM 82.0 °F 84.9 °F 68.0 °F 62% 29.93 in 10.0 mi SSW 6.9 mph - N/A   Partly Cloudy
2:53 PM 81.0 °F 84.1 °F 69.1 °F 67% 29.90 in 10.0 mi South 8.1 mph - N/A   Clear
3:53 PM 82.0 °F 85.5 °F 69.1 °F 65% 29.88 in 10.0 mi SW 6.9 mph - N/A   Clear
4:53 PM 81.0 °F 84.1 °F 69.1 °F 67% 29.86 in 10.0 mi South 4.6 mph - N/A   Clear
5:53 PM 81.0 °F 84.4 °F 70.0 °F 69% 29.85 in 10.0 mi South 6.9 mph - N/A   Clear
6:53 PM 78.1 °F - 69.1 °F 74% 29.85 in 10.0 mi SSE 4.6 mph - N/A   Clear
7:53 PM 75.0 °F - 69.1 °F 82% 29.84 in 10.0 mi SE 4.6 mph - N/A   Clear
8:53 PM 73.0 °F - 69.1 °F 87% 29.86 in 10.0 mi SSE 3.5 mph - N/A   Clear
9:53 PM 72.0 °F - 69.1 °F 91% 29.86 in 10.0 mi Calm Calm - N/A   Partly Cloudy
10:07 PM 71.6 °F - 68.0 °F 88% 29.87 in 10.0 mi North 4.6 mph - N/A Thunderstorm Scattered Clouds
10:35 PM 73.4 °F - 69.8 °F 88% 29.86 in 10.0 mi WSW 8.1 mph - N/A   Partly Cloudy
10:53 PM 73.0 °F - 68.0 °F 84% 29.86 in 5.0 mi Calm Calm - 0.00 in Rain Light Rain
11:53 PM 69.1 °F - 68.0 °F 96% 29.86 in 4.0 mi ESE 3.5 mph - 0.00 in   Clear